Location: Bruch
(44.2051°N, 0.4120°E)
Time: 12:20:00
(UTC+00:00)

FENGYUN 3A - Pass Details

Date: 29 November 2020
Orbit: 823 x 837 km, 98.4° (Epoch: 25 January)

Event Time Altitude Azimuth Distance (km) Brightness Sun altitude
Rises 04:52:23 0° 10° (N) 3,391 6.9 -24.4°
Reaches altitude 10° 04:54:46 10° 8° (N) 2,450 6.1 -24.0°
Maximum altitude 05:00:08 66° 287° (WNW) 906 3.5 -23.0°
Drops below altitude 10° 05:05:27 10° 207° (SSW) 2,425 5.9 -22.1°
Sets 05:07:48 0° 204° (SSW) 3,352 6.7 -21.6°
